#timestamp,LO_Frequency,Hit,StdDev 
1504231215.5,286046999.8,N,0.9
1504231235.4,286047000.4,N,0.8
1504231255.2,286047002.8,Y,0.0
1504231275.0,286046998.3,P,1.1
1504231275.9,286046998.3,N,1.1
1504231295.8,286046998.5,N,0.9
1504231315.6,286046998.3,N,0.9
1504231335.5,286047001.2,N,1.2
1504231355.3,286046998.1,N,1.2
1504231375.1,286046998.7,N,1.1
1504231395.9,286046999.9,N,1.1
1504231415.7,286046998.4,N,1.1
1504231435.5,286046998.9,N,1.0
1504231455.4,286046998.4,N,1.0
1504231475.2,286046998.7,N,0.9
1504231495.1,286046998.1,N,0.9
1504231496.0,286046998.1,N,0.9
1504231515.8,286047001.1,N,1.0
1504231535.6,286047001.0,N,1.1
1504231555.5,286047000.8,N,1.2
1504231575.3,286047001.2,N,1.2
1504231595.2,286046998.1,N,1.2
1504231615.9,286046998.3,N,1.2
1504231635.7,286047001.2,N,1.2
1504231655.6,286047000.7,N,1.3
1504231675.4,286047000.1,N,1.2
1504231695.3,286047000.1,N,1.2
1504231715.1,286047001.1,N,1.2
1504231716.0,286047001.1,N,1.3
1504231735.8,286047000.8,N,1.3
1504231755.7,286047000.5,N,1.2
1504231775.5,286047000.5,N,1.2
1504231795.4,286047002.7,N,1.3
1504231815.2,286047001.0,N,1.3
1504231835.0,286046998.6,N,1.3
1504231835.9,286046998.6,N,1.3
1504231855.8,286047001.2,N,1.3
1504231875.6,286047000.7,N,1.3
1504231895.4,286047000.0,N,1.3
1504231915.3,286047000.7,N,1.2
1504231935.1,286047002.7,N,1.3
1504231955.9,286046999.9,N,1.3
1504231975.7,286047002.8,N,1.4
1504231995.5,286047000.3,N,1.3
1504232015.4,286042853.7,Y,0.0
1504232035.2,286047000.3,P,0.0
1504232055.1,286046998.6,P,0.8
1504232056.0,286046998.6,N,0.9
1504232075.8,286046998.3,N,0.9
1504232095.6,286047000.7,N,1.0
1504232115.5,286047001.1,N,1.1
1504232135.3,286047000.3,N,1.0
1504232155.2,286047000.6,N,1.0
1504232175.9,286047002.5,N,1.2
1504232195.7,286047000.5,N,1.2
1504232215.6,286047000.2,N,1.1
1504232235.4,286047000.5,N,1.1
1504232255.2,286047001.9,N,1.1
1504232275.1,286047000.2,N,1.1
1504232276.0,286047000.2,N,1.1
1504232295.8,286047000.2,N,1.0
1504232315.7,286047011.9,Y,0.0
1504232335.5,286047002.8,P,1.3
1504232355.3,286047000.7,N,1.1
1504232375.2,286046999.7,N,1.2
1504232395.0,286047002.1,N,1.2
1504232395.9,286047002.1,N,1.1
1504232415.8,286047000.1,N,1.1
1504232435.6,286047000.1,N,1.1
1504232455.4,286047000.4,N,1.0
1504232475.3,286047000.0,N,1.0
1504232495.1,286046999.9,N,1.0
1504232515.9,286046999.9,N,1.0
1504232535.7,286047000.4,N,1.0
1504232555.5,286047002.3,N,1.0
1504232575.4,286047000.2,N,1.0
1504232595.2,286047002.2,N,1.0
1504232615.0,286047002.3,N,1.1
1504232615.9,286047002.3,N,1.1
1504232635.8,286047002.3,N,1.1
1504232655.6,286047002.7,N,1.1
1504232675.5,286047000.6,N,1.1
1504232695.3,286047002.5,N,1.1
1504232715.1,286047002.3,N,1.1
1504232735.9,286047002.4,N,1.1
1504232755.7,286047002.0,N,1.1
1504232775.6,286047002.2,N,1.1
1504232795.4,286047001.5,N,1.1
1504232815.2,286047002.1,N,1.1
1504232835.1,286047001.3,N,1.0
1504232836.0,286047001.3,N,1.0
1504232855.8,286047002.7,N,1.0
1504232875.6,286047002.4,N,1.0
1504232895.5,286046999.9,N,1.0
1504232915.3,286046999.8,N,1.0
1504232935.2,286047002.6,N,1.1
1504232955.9,286047002.2,N,1.1
1504232975.7,286047002.6,N,1.0
1504232995.6,286047001.6,N,1.0
1504233015.4,286047004.0,Y,0.0
1504233035.3,286047000.4,P,0.6
1504233055.1,286047000.3,N,0.6
1504233056.0,286047000.3,N,0.5
1504233075.8,286047000.1,N,0.5
1504233095.7,286047000.9,N,0.5
1504233115.5,286047000.7,N,0.5
1504233135.4,286047001.2,N,0.5
1504233155.2,286047000.7,N,0.4
1504233175.0,286047000.9,N,0.4
1504233175.9,286047000.9,N,0.4
1504233195.8,286046998.1,Y,0.0
1504233215.6,286046999.1,P,0.8
1504233235.5,286046999.6,N,0.7
1504233255.3,286046999.1,N,0.7
1504233275.1,286046998.4,N,0.8
1504233295.9,286047001.1,N,1.0
1504233315.7,286047000.7,N,1.0
1504233335.6,286046998.9,N,0.9
1504233355.4,286046998.9,N,0.9
1504233375.2,286046999.2,N,0.9
1504233395.1,286046999.3,N,0.8
1504233396.0,286046999.3,N,0.8
1504233415.8,286047000.8,N,0.9
1504233435.6,286046998.9,N,0.8
1504233455.5,286046998.7,N,0.8
1504233475.3,286046998.9,N,0.8
1504233495.2,286046998.7,N,0.8
1504233515.0,286047001.2,N,0.9
1504233515.9,286047001.2,N,0.9
1504233535.7,286047001.2,N,1.0
1504233555.6,286046998.7,N,1.0
1504233575.4,286046998.5,N,1.0
1504233595.3,286047000.8,N,1.0
1504233615.1,286047000.9,N,1.0
1504233616.0,286047000.9,N,1.0
1504233635.8,286046998.2,N,1.0
1504233655.7,286682706.2,Y,0.0
1504233675.5,286046999.9,P,0.1
1504233695.4,286047000.0,N,0.1
1504233715.2,286047000.6,P,0.3
1504233735.0,286047001.7,Y,0.0
1504233735.9,286047001.7,P,0.8
1504233755.8,286047000.7,N,0.7
1504233775.6,286047000.6,N,0.6
1504233795.5,286047002.7,Y,0.0
1504233815.3,286046999.9,P,0.4
1504233835.1,286047000.4,N,0.4
1504233855.9,286047000.5,N,0.3
1504233875.7,286047000.5,N,0.3
1504233895.6,286047001.1,Y,0.0
1504233915.4,286046998.3,P,1.1
1504233935.2,286046998.6,N,0.9
1504233955.1,286046998.6,N,0.8
1504233956.0,286046998.6,N,0.8
1504233975.8,286046998.1,N,0.8
1504233995.6,286047000.8,N,1.0
1504234015.5,286046998.7,N,0.9
1504234035.3,286046998.7,N,0.9
1504234055.2,286046998.1,N,0.9
1504234075.9,286046998.5,N,0.9
1504234095.7,286047001.2,N,1.0
1504234115.6,286046998.3,N,1.0
1504234135.4,286046998.1,N,1.0
1504234155.3,286047000.5,N,1.1
1504234175.1,286047000.6,N,1.1
1504234176.0,286047000.6,N,1.1
1504234195.8,286047000.9,N,1.1
1504234215.7,286047001.0,N,1.2
1504234235.5,286046998.3,N,1.2
1504234255.4,286046998.1,N,1.2
1504234275.2,286047000.7,N,1.2
1504234295.0,286047000.1,N,1.2
1504234295.9,286047000.1,N,1.2
1504234315.8,286047000.2,N,1.1
1504234335.6,286047000.2,N,1.1
1504234355.5,286047002.5,N,1.2
1504234375.3,286047002.2,N,1.3
1504234395.1,286046999.8,N,1.3
1504234415.9,286046999.9,N,1.3
1504234435.7,286046999.7,N,1.3
1504234455.5,286047002.0,N,1.3
1504234475.4,286047002.7,N,1.4
1504234495.2,286047002.0,N,1.4
1504234515.1,286047002.5,N,1.5
1504234516.0,286047002.5,N,1.5
1504234535.8,286047001.7,N,1.5
1504234555.6,286046999.7,N,1.4
1504234575.5,286047000.4,N,1.4
1504234595.3,286047000.3,N,1.3
1504234615.2,286046999.9,N,1.3
1504234635.9,286047000.4,N,1.3
1504234655.7,286047002.7,N,1.3
1504234675.6,286047001.0,N,1.2
1504234695.4,286047001.0,N,1.2
1504234715.2,286047000.9,N,1.2
1504234735.1,286047000.3,N,1.2
1504234736.0,286047000.3,N,1.2
1504234755.8,286047000.7,N,1.2
1504234775.7,286047000.7,N,1.1
1504234795.5,286046998.5,N,1.1
